Ellington Field
KEFD : now visible

Airfield :











YOU CAN JOIN US ON...

 
LOGIN :

Register | Disclaimer

   EN    FR    IT 

 









Legend :    VFR   Marginal VFR   IFR   Intensive IFR   Very Intensive IFR
Visi :
Ceiling :
>= 8 km
>= 3000ft
5 to 8 km
1000 to 3000 ft
1500m to 5 km
500 to 1000 ft
800 to 1500m
200 to 500 ft
< 800m
< 200 ft
Symbols :   Thunderstorms  Fog  Heavy snow  Heavy precipitations  Wind > 20 kt






- Airport Elevation : 32 ft


KEFD - Ellington Field

CURRENT METAR :
  • 261250Z 00000KT 10SM FEW045 19/17 A3010

EXPIRED METARs :
  • 261150Z 00000KT 10SM FEW037 17/16 A3009
  • 261050Z 00000KT 10SM OVC037 19/16 A3008

TAF TAF KEFD
Valid from the 26 at 12:00 until the 27 at 18:00 UTC


261200Z 2612/2718 11006KT 9999 FEW030 QNH2999INS
BECMG 2706/2707 06006KT 9999 BKN040 QNH2999INS TX28/2620Z TN16/2612Z
KZHU FIR / North America



MET'MAP, your aeronautical weather chart ! - Copyright ORBIFLY December 2007 - Disclaimer

ORBIFLY MET'MAP TEAM :

Programming & Development : Alexandra Zaïnal
Concept & original design : Baudouin d'Aumeries
Assistance for programming : Marc-Olivier Méhu
Technical & hardware support : Manuel Goepfert

Contact : metmap@orbifly.com




SOURCES & CREDITS :

   NOAA       Earth
Advisory